Home > Time Zones > World Clock > Weather > Spain > Cadiz > Past weeks

Flag for Spain Weather past 2 weeks in Cadiz, Cádiz, Spain

Now
64 °F

Clear.


Feels Like: 64 °F
Forecast: 64 / 75 °F
Wind: 1 mph from North

Location: Rota Airport

Current Time: Sep 4, 2015 at 6:56:21 AM

Latest Report: Sep 4, 2015 at 6:00 AM


Visibility: 10 mi

Pressure: 29.95 "Hg

Humidity: 83%

Dew point: 59 °F

Location of CadizLocation

Historic Weather in Cadiz — Graph

°F

Cadiz temperature yesterday

Maximum temperature yesterday: 72 °F (at 2:00 PM)
Minimum temperature yesterday: 64 °F (at 6:00 AM)
Average temperature yesterday: 69 °F

Past Weeks' High & Low Weather Summary

 TemperatureHumidityPressure
High93 °F (Aug 28, 2:47 PM)100% (Aug 31, 4:00 AM)30.09 "Hg (Aug 31, 4:00 AM)
Low61 °F (Aug 25, 6:00 AM)37% (Aug 25, 1:00 PM)29.86 "Hg (Aug 30, 12:00 AM)
Average75 °F74%30.00 "Hg
* Reported Aug 20 5:00 AM — Sep 4 5:00 AM, Cadiz, Weather by CustomWeather, © 2015

Note: Actual official high and low records may vary slightly from our data, if they occured in-between our weather recording intervals... More about our weather records

Advertising

Cadiz weather history for previous 24 hours

 ConditionsComfort  
Time TempWeatherWind HumidityBarometerVisibility
5:00 AM
Fri, Sep 4
66 °FClear.2 mph83%29.95 "Hg10 mi
4:00 AM66 °FClear.3 mph88%29.98 "Hg10 mi
3:00 AM68 °FClear.8 mph83%29.98 "Hg10 mi
2:00 AM68 °FClear.8 mph83%29.98 "Hg10 mi
1:00 AM68 °FClear.8 mph83%29.98 "Hg10 mi
12:00 AM68 °FClear.7 mph83%30.01 "Hg10 mi
11:00 PM
Thu, Sep 3
68 °FPassing clouds.7 mph78%30.01 "HgN/A
10:00 PM68 °FClear.12 mph78%30.01 "Hg10 mi
9:00 PM70 °FPassing clouds.9 mph69%29.98 "HgN/A
8:00 PM72 °FPassing clouds.14 mph65%29.98 "HgN/A
7:00 PM72 °FPassing clouds.14 mph65%29.98 "HgN/A
6:00 PM72 °FPassing clouds.17 mph61%29.98 "HgN/A
5:00 PM72 °FPassing clouds.14 mph61%29.98 "HgN/A
4:00 PM70 °FPassing clouds.12 mph60%30.01 "HgN/A
3:00 PM70 °FPassing clouds.13 mph64%30.01 "HgN/A
2:00 PM72 °FPassing clouds.12 mph57%30.04 "HgN/A
1:00 PM70 °FPassing clouds.12 mph57%30.04 "HgN/A
12:00 PM70 °FPassing clouds.10 mph64%30.04 "HgN/A
11:00 AM68 °FScattered clouds.10 mph69%30.04 "HgN/A
10:00 AM68 °FPassing clouds.10 mph69%30.04 "HgN/A
9:00 AM66 °FPassing clouds.8 mph73%30.01 "HgN/A
8:00 AM64 °FClear.7 mph78%30.01 "Hg10 mi
7:00 AM64 °FPassing clouds.7 mph73%29.98 "HgN/A
6:00 AM64 °FClear.6 mph73%29.98 "Hg10 mi
Weather by CustomWeather, © 2015

See weather overviewHow to use our weather pages